MCF1BS LHSA-LHSM

Flight info

Callsign MCF1BS
Flight time 0h 18m
Altitude 8000
Route OLATI
Aircraft DA62/L-SDFGRY/C

Departure

Time 2026-04-12 09:44
Airport Szentkirályszabadja Airfield (LHSA)

Arrival

Time 2026-04-12 10:02
Airport Hévíz–Balaton Airport (LHSM)
Time Latitude Longitude Altitude Speed Heading
2026-04-12 09:40 47.07776 17.97111 925 ft 0 kts 355°
2026-04-12 09:42 47.07792 17.97059 923 ft 15 kts 266°
2026-04-12 09:43 47.07689 17.96897 926 ft 12 kts 159°
2026-04-12 09:43 47.07396 17.97060 921 ft 76 kts 160°
2026-04-12 09:43 47.06804 17.97301 1126 ft 96 kts 165°
2026-04-12 09:44 47.06140 17.97435 1559 ft 95 kts 170°
2026-04-12 09:44 47.05496 17.97133 2054 ft 105 kts 223°
2026-04-12 09:44 47.05159 17.96061 2448 ft 128 kts 248°
2026-04-12 09:44 47.05006 17.94677 2785 ft 140 kts 250°
2026-04-12 09:45 47.04666 17.93353 3091 ft 142 kts 233°
2026-04-12 09:45 47.03991 17.92279 3365 ft 143 kts 213°
2026-04-12 09:45 47.03118 17.91489 3436 ft 152 kts 204°
2026-04-12 09:45 47.02147 17.90831 3212 ft 154 kts 199°
2026-04-12 09:46 47.01159 17.90336 3001 ft 147 kts 194°
2026-04-12 09:46 47.00247 17.89785 2894 ft 136 kts 211°
2026-04-12 09:46 46.99680 17.88739 2809 ft 128 kts 211°
2026-04-12 09:46 46.98874 17.88146 2576 ft 131 kts 204°
2026-04-12 09:47 46.98150 17.87426 2448 ft 130 kts 210°
2026-04-12 09:47 46.97623 17.87060 2387 ft 126 kts 193°
2026-04-12 09:47 46.96727 17.86829 2152 ft 131 kts 180°
2026-04-12 09:47 46.95829 17.86913 2029 ft 130 kts 170°
2026-04-12 09:48 46.94911 17.87116 1843 ft 135 kts 168°
2026-04-12 09:48 46.94019 17.87402 1785 ft 132 kts 165°
2026-04-12 09:48 46.93104 17.87696 1612 ft 141 kts 168°
2026-04-12 09:48 46.92073 17.87559 1429 ft 158 kts 193°
2026-04-12 09:49 46.91181 17.86708 1723 ft 151 kts 228°
2026-04-12 09:49 46.90884 17.85193 1798 ft 165 kts 264°
2026-04-12 09:49 46.90848 17.83452 1578 ft 172 kts 259°
2026-04-12 09:49 46.90645 17.81768 1513 ft 165 kts 252°
2026-04-12 09:50 46.90304 17.80179 1515 ft 164 kts 243°
2026-04-12 09:50 46.89846 17.78680 1698 ft 160 kts 243°
2026-04-12 09:50 46.89425 17.77166 1581 ft 162 kts 242°
2026-04-12 09:50 46.88984 17.75677 1654 ft 154 kts 242°
2026-04-12 09:51 46.88467 17.74285 1678 ft 157 kts 238°
2026-04-12 09:51 46.87992 17.72795 1678 ft 165 kts 243°
2026-04-12 09:51 46.87543 17.71327 1669 ft 161 kts 244°
2026-04-12 09:51 46.87115 17.69834 1743 ft 154 kts 238°
2026-04-12 09:52 46.86518 17.68531 1495 ft 163 kts 232°
2026-04-12 09:52 46.85835 17.67221 1390 ft 159 kts 224°
2026-04-12 09:52 46.85106 17.66062 1449 ft 157 kts 220°
2026-04-12 09:52 46.84307 17.64918 1369 ft 163 kts 221°
2026-04-12 09:53 46.83506 17.63732 1500 ft 164 kts 223°
2026-04-12 09:53 46.82777 17.62391 1482 ft 173 kts 232°
2026-04-12 09:53 46.82266 17.60860 1515 ft 158 kts 244°
2026-04-12 09:53 46.81882 17.59447 1415 ft 144 kts 243°
2026-04-12 09:54 46.81517 17.58110 1248 ft 139 kts 244°
2026-04-12 09:54 46.81144 17.56780 927 ft 145 kts 245°
2026-04-12 09:54 46.80751 17.55459 1013 ft 144 kts 241°
2026-04-12 09:54 46.80319 17.54092 1130 ft 152 kts 241°
2026-04-12 09:55 46.79974 17.52693 1552 ft 148 kts 246°
2026-04-12 09:55 46.79644 17.51135 1539 ft 169 kts 248°
2026-04-12 09:55 46.79318 17.49516 1798 ft 167 kts 251°
2026-04-12 09:55 46.79030 17.47822 1853 ft 178 kts 257°
2026-04-12 09:56 46.79187 17.45972 1577 ft 190 kts 284°
2026-04-12 09:56 46.79341 17.44327 1601 ft 152 kts 263°
2026-04-12 09:56 46.79179 17.42858 1502 ft 141 kts 253°
2026-04-12 09:56 46.78909 17.41488 1431 ft 136 kts 246°
2026-04-12 09:57 46.78547 17.40083 1307 ft 160 kts 241°
2026-04-12 09:57 46.78024 17.38618 1304 ft 161 kts 236°
2026-04-12 09:57 46.77435 17.37131 1058 ft 174 kts 234°
2026-04-12 09:57 46.76790 17.35664 1183 ft 176 kts 230°
2026-04-12 09:58 46.76198 17.34108 1288 ft 171 kts 250°
2026-04-12 09:58 46.76124 17.32494 1564 ft 161 kts 269°
2026-04-12 09:58 46.76168 17.30836 1728 ft 165 kts 272°
2026-04-12 09:58 46.76130 17.29241 1941 ft 154 kts 244°
2026-04-12 09:59 46.75614 17.27856 2052 ft 160 kts 230°
2026-04-12 09:59 46.74908 17.26561 2123 ft 168 kts 225°
2026-04-12 09:59 46.74169 17.25264 2135 ft 159 kts 225°
2026-04-12 09:59 46.73433 17.24032 2024 ft 160 kts 221°
2026-04-12 10:00 46.72700 17.22809 1995 ft 159 kts 225°
2026-04-12 10:00 46.72128 17.21440 1851 ft 158 kts 242°
2026-04-12 10:00 46.71759 17.19889 1806 ft 159 kts 250°
2026-04-12 10:00 46.71451 17.18438 1798 ft 141 kts 246°
2026-04-12 10:01 46.71107 17.17111 1565 ft 131 kts 240°
2026-04-12 10:01 46.70708 17.15968 1113 ft 122 kts 230°
2026-04-12 10:01 46.70066 17.15477 689 ft 102 kts 181°
2026-04-12 10:01 46.69412 17.15616 416 ft 84 kts 164°
2026-04-12 10:02 46.68947 17.15794 408 ft 57 kts 166°
2026-04-12 10:02 46.68630 17.15917 409 ft 38 kts 165°
2026-04-12 10:02 46.68423 17.16052 407 ft 18 kts 101°
2026-04-12 10:02 46.68427 17.16214 407 ft 14 kts 85°
2026-04-12 10:03 46.68450 17.16354 407 ft 14 kts 31°
2026-04-12 10:03 46.68506 17.16347 408 ft 0 kts 333°
2026-04-12 10:04 46.68507 17.16346 408 ft 1 kts 333°
2026-04-12 10:04 46.68632 17.16265 408 ft 35 kts 335°
2026-04-12 10:04 46.68917 17.16095 410 ft 52 kts 351°
2026-04-12 10:04 46.69278 17.16103 411 ft 44 kts
2026-04-12 10:05 46.69344 17.16096 411 ft 0 kts 326°